カタログに戻る

STARLINK-38188

運用中通信SSO
NORAD 100233·PAYLOAD·🇺🇸 United States

打ち上げ Aug 4, 2026 から Vandenberg Space Force Base

Loading…

次のパス (今後24時間)

TLE

最新Source: Space-Track

元期: Sep 14, 2026, 13:47 UTC

1 A0233U 26177W   26257.57477851  .00034156  00000-0  62667-3 0  9996
2 A0233  97.2833 308.3229 0000718  76.2633 283.8698 15.49203017  6442

AllMySatでSTARLINK-38188をリアルタイム追跡

Download on the App Store